TimeCST,TemperatureF,Dew PointF,Humidity,Sea Level PressureIn,VisibilityMPH,Wind Direction,Wind SpeedMPH,Gust SpeedMPH,PrecipitationIn,Events,Conditions,WindDirDegrees,DateUTC
12:15 AM,38.1,36.3,93,30.27,10.0,Calm,Calm,-,N/A,,Unknown,0,2013-03-08 06:15:00
12:35 AM,36.7,34.7,93,30.27,10.0,Calm,Calm,-,N/A,,Unknown,0,2013-03-08 06:35:00
12:55 AM,36.1,34.3,93,30.27,10.0,Calm,Calm,-,N/A,,Unknown,0,2013-03-08 06:55:00
1:15 AM,36.9,35.2,94,30.27,10.0,Calm,Calm,-,N/A,,Unknown,0,2013-03-08 07:15:00
1:35 AM,37.0,35.4,94,30.27,5.0,Calm,Calm,-,N/A,,Mist,0,2013-03-08 07:35:00
1:55 AM,36.3,34.3,93,30.27,10.0,Calm,Calm,-,N/A,,Unknown,0,2013-03-08 07:55:00
2:15 AM,35.8,34.2,94,30.27,10.0,Calm,Calm,-,N/A,,Clear,0,2013-03-08 08:15:00
2:35 AM,36.0,34.3,94,30.26,7.0,Calm,Calm,-,N/A,,Clear,0,2013-03-08 08:35:00
2:55 AM,34.9,33.1,93,30.26,7.0,Calm,Calm,-,N/A,,Unknown,0,2013-03-08 08:55:00
3:15 AM,34.7,33.1,94,30.26,10.0,Calm,Calm,-,N/A,,Unknown,0,2013-03-08 09:15:00
3:35 AM,34.3,32.9,94,30.26,10.0,North,4.6,-,N/A,,Unknown,10,2013-03-08 09:35:00
4:15 AM,36.1,34.9,95,30.26,10.0,Calm,Calm,-,N/A,,Unknown,0,2013-03-08 10:15:00
4:35 AM,35.2,33.8,94,30.27,7.0,Calm,Calm,-,N/A,,Unknown,0,2013-03-08 10:35:00
4:55 AM,34.9,33.3,94,30.28,10.0,Calm,Calm,-,N/A,,Unknown,0,2013-03-08 10:55:00
5:15 AM,33.8,32.2,94,30.28,5.0,Calm,Calm,-,N/A,,Mist,0,2013-03-08 11:15:00
5:35 AM,34.3,33.1,95,30.29,7.0,Calm,Calm,-,N/A,,Unknown,0,2013-03-08 11:35:00
5:55 AM,34.2,32.9,95,30.30,10.0,Calm,Calm,-,N/A,,Unknown,0,2013-03-08 11:55:00
6:15 AM,33.4,32.0,94,30.29,7.0,Calm,Calm,-,N/A,,Unknown,0,2013-03-08 12:15:00
6:35 AM,33.1,32.0,96,30.30,5.0,Calm,Calm,-,N/A,,Mist,0,2013-03-08 12:35:00
6:55 AM,34.0,32.9,96,30.30,7.0,Calm,Calm,-,N/A,,Unknown,0,2013-03-08 12:55:00
7:15 AM,36.9,35.8,96,30.31,5.0,Calm,Calm,-,N/A,,Mist,0,2013-03-08 13:15:00
7:35 AM,40.1,36.7,88,30.32,7.0,NNE,3.5,-,N/A,,Unknown,20,2013-03-08 13:35:00
7:55 AM,42.3,30.6,63,30.33,7.0,Calm,Calm,-,N/A,,Unknown,0,2013-03-08 13:55:00
8:15 AM,45.3,29.5,54,30.33,10.0,Calm,Calm,-,N/A,,Unknown,0,2013-03-08 14:15:00
8:35 AM,48.0,27.5,45,30.34,10.0,Calm,Calm,-,N/A,,Unknown,0,2013-03-08 14:35:00
8:55 AM,51.3,25.7,37,30.33,10.0,East,3.5,-,N/A,,Unknown,80,2013-03-08 14:55:00
9:15 AM,54.3,21.2,28,30.33,10.0,ENE,4.6,-,N/A,,Unknown,60,2013-03-08 15:15:00
9:35 AM,57.2,17.6,21,30.32,10.0,East,3.5,-,N/A,,Clear,80,2013-03-08 15:35:00
9:55 AM,58.8,12.4,16,30.32,10.0,Calm,Calm,-,N/A,,Clear,0,2013-03-08 15:55:00
10:15 AM,60.6,5.7,11,30.31,10.0,Calm,Calm,-,N/A,,Unknown,0,2013-03-08 16:15:00
10:35 AM,62.8,-0.6,8,30.31,10.0,East,5.8,-,N/A,,Unknown,100,2013-03-08 16:35:00
10:55 AM,63.5,-7.2,6,30.32,10.0,ESE,4.6,-,N/A,,Unknown,110,2013-03-08 16:55:00
11:15 AM,64.6,-6.7,6,30.31,10.0,ESE,6.9,-,N/A,,Unknown,120,2013-03-08 17:15:00
11:35 AM,65.3,-9.2,5,30.31,10.0,SE,3.5,-,N/A,,Unknown,140,2013-03-08 17:35:00
11:55 AM,66.6,-21.8,4,30.29,10.0,Calm,Calm,-,N/A,,Unknown,0,2013-03-08 17:55:00
12:15 PM,-9999,-9999,N/A,30.29,10.0,East,4.6,-,N/A,,Unknown,100,2013-03-08 18:15:00
12:35 PM,-9999,-9999,N/A,30.28,10.0,Calm,Calm,-,N/A,,Clear,0,2013-03-08 18:35:00
12:55 PM,-9999,-9999,N/A,30.26,10.0,SE,4.6,-,N/A,,Clear,130,2013-03-08 18:55:00
1:15 PM,-9999,-9999,N/A,30.25,10.0,ENE,3.5,-,N/A,,Unknown,70,2013-03-08 19:15:00
1:35 PM,-9999,-9999,N/A,30.24,10.0,NNE,3.5,-,N/A,,Unknown,30,2013-03-08 19:35:00
1:55 PM,-9999,-9999,N/A,30.23,10.0,Calm,Calm,-,N/A,,Unknown,0,2013-03-08 19:55:00
2:15 PM,-9999,-9999,N/A,30.23,10.0,Calm,Calm,-,N/A,,Unknown,0,2013-03-08 20:15:00
2:35 PM,-9999,-9999,N/A,30.22,10.0,Calm,Calm,-,N/A,,Unknown,0,2013-03-08 20:35:00
2:55 PM,-9999,-9999,N/A,30.21,10.0,East,3.5,-,N/A,,Unknown,100,2013-03-08 20:55:00
3:15 PM,-9999,-9999,N/A,30.21,10.0,Calm,Calm,-,N/A,,Unknown,0,2013-03-08 21:15:00
3:35 PM,-9999,-9999,N/A,30.21,10.0,Calm,Calm,-,N/A,,Unknown,0,2013-03-08 21:35:00
3:55 PM,-9999,-9999,N/A,30.21,10.0,Calm,Calm,-,N/A,,Unknown,0,2013-03-08 21:55:00
4:15 PM,-9999,-9999,N/A,30.21,10.0,West,3.5,-,N/A,,Unknown,260,2013-03-08 22:15:00
4:35 PM,-9999,-9999,N/A,30.21,10.0,West,4.6,-,N/A,,Unknown,270,2013-03-08 22:35:00
4:55 PM,-9999,-9999,N/A,30.21,10.0,Calm,Calm,-,N/A,,Unknown,0,2013-03-08 22:55:00
5:15 PM,-9999,-9999,N/A,30.21,10.0,Calm,Calm,-,N/A,,Unknown,0,2013-03-08 23:15:00
5:35 PM,65.7,15.8,15,30.20,10.0,SW,9.2,-,N/A,,Unknown,220,2013-03-08 23:35:00
5:55 PM,63.9,18.5,17,30.21,10.0,SSW,6.9,-,N/A,,Unknown,210,2013-03-08 23:55:00
6:15 PM,61.9,21.0,21,30.21,10.0,SSW,6.9,-,N/A,,Unknown,210,2013-03-09 00:15:00
6:35 PM,60.6,20.8,22,30.21,10.0,SSW,4.6,-,N/A,,Clear,200,2013-03-09 00:35:00
6:55 PM,60.3,18.7,20,30.21,10.0,South,3.5,-,N/A,,Clear,190,2013-03-09 00:55:00
7:15 PM,56.3,28.0,34,30.21,10.0,Calm,Calm,-,N/A,,Unknown,0,2013-03-09 01:15:00
7:35 PM,52.7,32.0,45,30.21,10.0,Calm,Calm,-,N/A,,Unknown,0,2013-03-09 01:35:00
7:55 PM,52.9,29.5,41,30.21,10.0,Calm,Calm,-,N/A,,Unknown,0,2013-03-09 01:55:00
8:15 PM,50.5,32.5,50,30.21,10.0,Calm,Calm,-,N/A,,Unknown,0,2013-03-09 02:15:00
8:35 PM,50.0,33.1,52,30.23,10.0,Calm,Calm,-,N/A,,Clear,0,2013-03-09 02:35:00
8:55 PM,50.0,32.0,50,30.22,10.0,Calm,Calm,-,N/A,,Clear,0,2013-03-09 02:55:00
9:15 PM,48.4,33.8,57,30.23,10.0,Calm,Calm,-,N/A,,Unknown,0,2013-03-09 03:15:00
9:35 PM,49.3,33.3,54,30.23,10.0,Calm,Calm,-,N/A,,Unknown,0,2013-03-09 03:35:00
9:55 PM,48.9,33.1,54,30.24,10.0,Calm,Calm,-,N/A,,Unknown,0,2013-03-09 03:55:00
10:15 PM,48.6,34.5,58,30.24,10.0,Calm,Calm,-,N/A,,Unknown,0,2013-03-09 04:15:00
10:35 PM,48.6,34.7,59,30.24,10.0,Calm,Calm,-,N/A,,Unknown,0,2013-03-09 04:35:00
10:55 PM,49.1,34.9,58,30.23,10.0,Calm,Calm,-,N/A,,Unknown,0,2013-03-09 04:55:00
11:15 PM,48.6,38.1,67,30.23,10.0,Calm,Calm,-,N/A,,Unknown,0,2013-03-09 05:15:00
11:35 PM,48.4,34.2,58,30.22,10.0,Calm,Calm,-,N/A,,Unknown,0,2013-03-09 05:35:00
11:55 PM,46.6,40.6,80,30.22,10.0,Calm,Calm,-,N/A,,Unknown,0,2013-03-09 05:55:00